Galveston Weather Center

Moon Phase Calendar



Online Cameras

 


      

Current Conditions in Texas City
1/26/2022 1:26:59 PM

52°F
Feels Like 49
Clear
Humidity
54%
Pressure
30.3"
Wind
6.9 mph (E)
Dew Point
36°F
UV Index
4/10 (Moderate)
Visibility
6 mi

Hourly Forecast

Date & Time Wed, Jan 26
1:00 PM
Wed, Jan 26
2:00 PM
Wed, Jan 26
3:00 PM
Wed, Jan 26
4:00 PM
Wed, Jan 26
5:00 PM
Wed, Jan 26
6:00 PM
Wed, Jan 26
7:00 PM
Wed, Jan 26
8:00 PM
Wed, Jan 26
9:00 PM
Wed, Jan 26
10:00 PM
Wed, Jan 26
11:00 PM
Thu, Jan 27
12:00 AM
Thu, Jan 27
1:00 AM
Thu, Jan 27
2:00 AM
Thu, Jan 27
3:00 AM
Thu, Jan 27
4:00 AM
Thu, Jan 27
5:00 AM
Thu, Jan 27
6:00 AM
Thu, Jan 27
7:00 AM
Thu, Jan 27
8:00 AM
Thu, Jan 27
9:00 AM
Thu, Jan 27
10:00 AM
Thu, Jan 27
11:00 AM
Thu, Jan 27
12:00 PM
Thu, Jan 27
1:00 PM
Thu, Jan 27
2:00 PM
Thu, Jan 27
3:00 PM
Thu, Jan 27
4:00 PM
Thu, Jan 27
5:00 PM
Thu, Jan 27
6:00 PM
Thu, Jan 27
7:00 PM
Thu, Jan 27
8:00 PM
Thu, Jan 27
9:00 PM
Thu, Jan 27
10:00 PM
Thu, Jan 27
11:00 PM
Fri, Jan 28
12:00 AM
Fri, Jan 28
1:00 AM
Fri, Jan 28
2:00 AM
Fri, Jan 28
3:00 AM
Fri, Jan 28
4:00 AM
Fri, Jan 28
5:00 AM
Fri, Jan 28
6:00 AM
Fri, Jan 28
7:00 AM
Fri, Jan 28
8:00 AM
Fri, Jan 28
9:00 AM
Fri, Jan 28
10:00 AM
Fri, Jan 28
11:00 AM
Fri, Jan 28
12:00 PM
Condition
Clear

Clear

Clear

Clear

Clear

Clear

Clear

Clear

Clear

Clear

Clear

Clear

Clear

Clouds

Clouds

Clouds

Clouds

Clouds

Clouds

Clouds

Clouds

Clouds

Clouds

Clouds

Clouds

Clouds

Clouds

Clouds

Clouds

Clouds

Clouds

Clouds

Clouds

Clouds

Clouds

Clouds

Clouds

Clouds

Clouds

Clouds

Clouds

Clouds

Clouds

Clouds

Rain

Clouds

Clouds

Clouds
Temperature 52°F51°F51°F51°F52°F52°F52°F52°F52°F52°F51°F51°F50°F49°F49°F49°F48°F48°F48°F48°F49°F49°F50°F51°F52°F52°F53°F53°F54°F54°F54°F55°F55°F55°F55°F54°F54°F53°F52°F52°F51°F51°F51°F50°F50°F50°F51°F52°F
Feels Like 49°F49°F49°F49°F50°F50°F50°F50°F50°F49°F49°F48°F46°F45°F44°F44°F43°F43°F44°F44°F44°F46°F48°F49°F49°F50°F51°F51°F52°F52°F53°F53°F53°F54°F53°F53°F52°F51°F50°F50°F49°F49°F48°F48°F44°F48°F48°F49°F
Cloudiness 0%1%2%2%2%2%0%0%1%1%1%3%4%30%52%64%71%76%100%95%97%93%91%90%100%100%97%98%98%98%100%100%100%100%100%100%99%100%100%100%100%100%100%100%100%100%100%100%
Visibility 6 mi6 mi6 mi6 mi6 mi6 mi6 mi6 mi6 mi6 mi6 mi6 mi6 mi6 mi6 mi6 mi6 mi6 mi6 mi6 mi6 mi6 mi6 mi6 mi6 mi6 mi6 mi6 mi6 mi6 mi6 mi6 mi6 mi6 mi6 mi6 mi6 mi6 mi6 mi6 mi6 mi6 mi6 mi6 mi6 mi6 mi6 mi6 mi
Precipitation 0%0%0%0%0%0%0%0%0%0%0%0%0%0%0%0%0%0%0%0%0%0%0%0%0%0%0%0%0%0%0%0%0%0%0%0%0%0%8%0%7%11%27%35%47%47%47%47%
Humidity 54%56%56%57%58%60%59%59%59%59%60%61%62%64%66%66%66%65%64%64%63%62%60%59%57%57%57%58%61%63%64%65%65%65%66%66%66%68%67%68%67%64%63%64%63%60%57%55%
Dew Point 36°F36°F36°F37°F38°F39°F39°F38°F38°F38°F38°F38°F38°F38°F38°F38°F38°F37°F37°F36°F37°F37°F37°F37°F37°F37°F38°F39°F41°F42°F43°F43°F43°F44°F43°F43°F43°F43°F42°F42°F40°F39°F39°F38°F37°F37°F36°F36°F
Pressure 30.3"30.3"30.27"30.27"30.24"30.24"30.24"30.27"30.27"30.3"30.3"30.3"30.3"30.3"30.27"30.27"30.27"30.27"30.27"30.27"30.3"30.3"30.3"30.3"30.27"30.21"30.21"30.18"30.21"30.21"30.21"30.21"30.24"30.24"30.24"30.24"30.27"30.24"30.24"30.24"30.24"30.3"30.33"30.33"30.36"30.39"30.39"30.36"
Wind Speed 9.4 mph9.3 mph8.1 mph8.3 mph9 mph9.3 mph11.4 mph13 mph12.9 mph12.2 mph10.4 mph8.6 mph8.9 mph9.8 mph11.2 mph11.5 mph12.3 mph11.4 mph11 mph10.5 mph9.9 mph9 mph7.5 mph7 mph5.3 mph6.1 mph3.8 mph4.8 mph5.3 mph6.6 mph6.2 mph7.9 mph7.4 mph9.6 mph9.8 mph10.3 mph9.4 mph12.8 mph11.7 mph15.7 mph13.7 mph12.8 mph13.2 mph16.7 mph15.9 mph15.6 mph16.2 mph18.2 mph
Wind
Direction
62°
ENE
68°
ENE
79°
E
80°
E
83°
E
82°
E
70°
ENE
65°
ENE
70°
ENE
73°
ENE
67°
ENE
61°
ENE
54°
NE
52°
NE
55°
NE
56°
NE
55°
NE
56°
NE
58°
ENE
60°
ENE
59°
ENE
57°
ENE
57°
ENE
51°
NE
41°
NE
51°
NE
75°
ENE
83°
E
84°
E
92°
E
93°
E
93°
E
83°
E
59°
ENE
55°
NE
52°
NE
43°
NE
36°
NE
35°
NE
26°
NNE
24°
NNE
24°
NNE
14°
NNE
15°
NNE
15°
NNE
14°
NNE

N
358°
N

Daily Forecast

Date High Low Precip. Humidity
Today
Jan 26

Clear
53 °F
43 °F
15%
56%
Thursday
Jan 27

Clouds
55 °F
48 °F
0%
59%
Friday
Jan 28

Rain
55 °F
50 °F
47%
55%
Saturday
Jan 29

Clear
54 °F
46 °F
0%
48%
Sunday
Jan 30

Clear
59 °F
51 °F
0%
56%
Monday
Jan 31

Rain
61 °F
59 °F
100%
78%
Tuesday
Feb 1

Rain
61 °F
58 °F
100%
89%
Wednesday
Feb 2

Rain
63 °F
57 °F
100%
97%
Thursday
Feb 3

Rain
52 °F
42 °F
100%
64%
Friday
Feb 4

Clouds
52 °F
40 °F
10%
60%
Saturday
Feb 5

Rain
55 °F
47 °F
60%
65%
Sunday
Feb 6

Rain
59 °F
47 °F
100%
79%
Monday
Feb 7

Rain
51 °F
45 °F
100%
80%
Tuesday
Feb 8

Snow
44 °F
36 °F
100%
78%
Wednesday
Feb 9

Clouds
46 °F
38 °F
0%
56%
Thursday
Feb 10

Clouds
55 °F
44 °F
0%
77%

Temperature 8-14 Day Outlook



Precipitation 8-14 Day Outlook




Quick Links
Galveston News
Galveston Photos
Galveston Videos




About Us
Contact Us
Site Map
Search Site
Advertise With Us
   
Galveston.USGulf.info
THE GALVESTON WEBSITE

Copyright 2022, Coastal Town
Privacy    |    Legal